#�ϑ�����,���ϕ���,���ϕ���,�ő啗��,�ő啗����������,�ő�u�ԕ���,�ő�u�ԕ�����������
#(�N����),(m/s)   ,(16����),(m/s)   ,(16����)        ,(m/s)       ,(16����)            
2015/8/31 0:01,0.6,1,0.6,1,1,15
2015/8/31 0:02,0.6,1,0.6,1,0.6,16
2015/8/31 0:03,0.6,1,0.6,1,1.1,1
2015/8/31 0:04,0.7,1,0.7,1,1.1,1
2015/8/31 0:05,0.7,1,0.7,1,1,16
2015/8/31 0:06,0.7,1,0.7,1,0.9,2
2015/8/31 0:07,0.7,1,0.7,1,0.8,2
2015/8/31 0:08,0.7,1,0.7,1,1.4,3
2015/8/31 0:09,0.7,1,0.7,1,1.1,2
2015/8/31 0:10,0.7,1,0.7,1,0.9,2
2015/8/31 0:11,0.6,2,0.7,1,0.5,2
2015/8/31 0:12,0.6,2,0.6,1,0.9,2
2015/8/31 0:13,0.6,2,0.6,1,1.3,2
2015/8/31 0:14,0.7,2,0.7,1,1.8,3
2015/8/31 0:15,0.8,2,0.8,2,2.1,3
2015/8/31 0:16,0.8,2,0.8,2,1.8,3
2015/8/31 0:17,0.9,2,0.9,2,2.2,2
2015/8/31 0:18,0.9,2,0.9,2,1.4,2
2015/8/31 0:19,0.9,2,0.9,2,1.4,1
2015/8/31 0:20,0.9,2,0.9,2,1.9,1
2015/8/31 0:21,1,2,1,2,1,16
2015/8/31 0:22,1,2,1,2,0.8,2
2015/8/31 0:23,1,2,1,2,1.3,1
2015/8/31 0:24,1,2,1,2,2.5,1
2015/8/31 0:25,1,1,1,2,2.2,1
2015/8/31 0:26,1,1,1,2,1.9,16
2015/8/31 0:27,0.9,1,0.9,2,1,16
2015/8/31 0:28,0.9,1,0.9,2,1.9,2
2015/8/31 0:29,1,1,1,2,2.4,1
2015/8/31 0:30,1,1,1,2,1.9,1
2015/8/31 0:31,1,1,1,2,1.9,1
2015/8/31 0:32,1.1,1,1.1,1,1.5,16
2015/8/31 0:33,1.1,1,1.1,1,1.8,2
2015/8/31 0:34,1.1,1,1.1,1,1.8,2
2015/8/31 0:35,1,1,1.1,1,1.4,2
2015/8/31 0:36,1,1,1,1,1.4,2
2015/8/31 0:37,1,1,1,1,1.1,2
2015/8/31 0:38,1,1,1,1,1.4,3
2015/8/31 0:39,0.9,2,1,1,1.3,1
2015/8/31 0:40,0.9,2,0.9,1,1.3,1
2015/8/31 0:41,0.9,2,0.9,1,1.6,1
2015/8/31 0:42,0.9,2,0.9,1,1.4,2
2015/8/31 0:43,0.9,2,0.9,1,1.3,2
2015/8/31 0:44,0.9,2,0.9,1,1.4,1
2015/8/31 0:45,0.8,1,0.9,1,1,16
2015/8/31 0:46,0.8,1,0.8,1,1.3,16
2015/8/31 0:47,0.8,1,0.8,1,1.6,16
2015/8/31 0:48,0.9,1,0.9,1,1.9,15
2015/8/31 0:49,0.9,1,0.9,2,1.5,16
2015/8/31 0:50,1,16,1,16,1.6,15
2015/8/31 0:51,0.9,16,1,16,1.3,15
2015/8/31 0:52,0.9,16,0.9,16,1.3,15
2015/8/31 0:53,0.9,16,0.9,16,1,15
2015/8/31 0:54,0.8,15,0.9,16,0.6,15
2015/8/31 0:55,0.8,15,0.8,16,0.5,15
2015/8/31 0:56,0.7,15,0.8,16,0.1,14
2015/8/31 0:57,0.6,15,0.7,16,0,14
2015/8/31 0:58,0.5,14,0.6,16,0.5,13
2015/8/31 0:59,0.4,14,0.5,16,0.8,10
2015/8/31 1:00,0.4,14,0.4,16,1,10
2015/8/31 1:01,0.4,13,0.4,16,1.1,9
2015/8/31 1:02,0.4,12,0.4,16,1,9
2015/8/31 1:03,0.4,12,0.4,16,0.9,9
2015/8/31 1:04,0.4,11,0.4,15,0.5,9
2015/8/31 1:05,0.4,11,0.4,15,0.8,11
2015/8/31 1:06,0.5,10,0.5,15,1.5,12
2015/8/31 1:07,0.6,10,0.6,15,2,10
2015/8/31 1:08,0.8,10,0.8,10,2.4,11
2015/8/31 1:09,0.9,10,0.9,10,2.5,11
2015/8/31 1:10,0.9,10,0.9,10,1.8,11
2015/8/31 1:11,1,11,1,11,1.8,12
2015/8/31 1:12,1,11,1,11,2,11
2015/8/31 1:13,1.1,11,1.1,11,1.9,12
2015/8/31 1:14,1.2,11,1.2,11,1.4,11
2015/8/31 1:15,1.2,11,1.2,11,1.5,9
2015/8/31 1:16,1.3,11,1.3,11,2,10
2015/8/31 1:17,1.3,11,1.3,11,2.1,9
2015/8/31 1:18,1.3,11,1.3,11,2.2,8
2015/8/31 1:19,1.4,11,1.4,11,3.2,11
2015/8/31 1:20,1.5,10,1.5,11,3.9,9
2015/8/31 1:21,1.6,10,1.6,10,3.8,10
2015/8/31 1:22,1.7,10,1.7,10,3,10
2015/8/31 1:23,1.7,10,1.7,10,2.2,10
2015/8/31 1:24,1.7,10,1.7,10,2.2,10
2015/8/31 1:25,1.8,10,1.8,10,2,11
2015/8/31 1:26,1.8,10,1.8,10,1.3,11
2015/8/31 1:27,1.7,11,1.7,10,1.3,12
2015/8/31 1:28,1.6,11,1.7,10,1,12
2015/8/31 1:29,1.5,11,1.6,10,1,11
2015/8/31 1:30,1.2,11,1.4,10,0.8,12
2015/8/31 1:31,1,11,1.2,10,0.3,14
2015/8/31 1:32,0.8,11,1,10,0.4,10
2015/8/31 1:33,0.7,11,0.8,10,0.8,13
2015/8/31 1:34,0.5,12,0.7,10,0.5,13
2015/8/31 1:35,0.4,12,0.5,10,0,16
2015/8/31 1:36,0.3,13,0.4,10,0,16
2015/8/31 1:37,0.2,13,0.3,11,0,16
2015/8/31 1:38,0.2,13,0.2,11,0.1,16
2015/8/31 1:39,0.1,14,0.2,11,0.4,16
2015/8/31 1:40,0.1,15,0.1,11,0.5,1
2015/8/31 1:41,0.2,15,0.2,11,1.1,1
2015/8/31 1:42,0.2,16,0.2,11,1,16
2015/8/31 1:43,0.2,16,0.2,11,0.9,15
2015/8/31 1:44,0.2,16,0.2,12,0.3,1
2015/8/31 1:45,0.3,16,0.3,12,0.8,1
2015/8/31 1:46,0.3,1,0.3,13,0.8,1
2015/8/31 1:47,0.4,1,0.4,1,1.1,1
2015/8/31 1:48,0.5,1,0.5,1,1.6,2
2015/8/31 1:49,0.7,1,0.7,1,1.9,1
2015/8/31 1:50,0.8,1,0.8,1,2.5,16
2015/8/31 1:51,0.9,1,0.9,1,2.4,1
2015/8/31 1:52,1,1,1,1,3.8,1
2015/8/31 1:53,1.2,1,1.2,1,4.8,2
2015/8/31 1:54,1.5,1,1.5,1,3.8,1
2015/8/31 1:55,1.7,1,1.7,1,4.4,3
2015/8/31 1:56,1.9,1,1.9,1,4.2,2
2015/8/31 1:57,2,2,2,1,3.5,3
2015/8/31 1:58,2.1,2,2.1,1,3.1,3
2015/8/31 1:59,2.1,2,2.1,1,2.7,2
2015/8/31 2:00,2.2,2,2.2,2,3.7,3
2015/8/31 2:01,2.2,2,2.2,2,2.2,4
2015/8/31 2:02,2.1,2,2.2,2,2,3
2015/8/31 2:03,2,2,2.1,2,3,4
2015/8/31 2:04,1.9,3,2,2,2.2,4
2015/8/31 2:05,1.6,3,1.9,2,1.1,4
2015/8/31 2:06,1.4,3,1.6,2,1.1,4
2015/8/31 2:07,1.2,4,1.4,2,0.6,8
2015/8/31 2:08,1.1,5,1.2,2,1.4,10
2015/8/31 2:09,1.1,6,1.1,2,1.1,10
2015/8/31 2:10,0.9,7,1.1,2,1,11
2015/8/31 2:11,0.8,8,0.9,2,1.4,11
2015/8/31 2:12,0.9,9,0.9,2,1.8,12
2015/8/31 2:13,0.9,9,0.9,2,2.9,11
2015/8/31 2:14,1,10,1,3,2.9,11
2015/8/31 2:15,1.2,10,1.2,3,2.7,11
2015/8/31 2:16,1.5,10,1.5,10,3.2,12
2015/8/31 2:17,1.7,11,1.7,11,4.1,12
2015/8/31 2:18,1.8,11,1.8,11,3.5,11
2015/8/31 2:19,1.9,11,1.9,11,3.7,12
2015/8/31 2:20,2,11,2,11,3.2,13
2015/8/31 2:21,2.1,11,2.1,11,3.7,13
2015/8/31 2:22,2.2,11,2.2,11,3.2,12
2015/8/31 2:23,2.2,11,2.2,11,3.7,12
2015/8/31 2:24,2.2,12,2.2,11,3.6,11
2015/8/31 2:25,2.3,12,2.3,12,4.5,12
2015/8/31 2:26,2.3,11,2.3,12,5.4,10
2015/8/31 2:27,2.4,11,2.4,11,5.4,10
2015/8/31 2:28,2.5,11,2.5,11,4.8,9
2015/8/31 2:29,2.6,11,2.6,11,3.9,10
2015/8/31 2:30,2.6,11,2.6,11,3.8,10
2015/8/31 2:31,2.6,11,2.7,11,2.6,10
2015/8/31 2:32,2.6,11,2.6,11,2.7,9
2015/8/31 2:33,2.4,10,2.6,11,1.9,8
2015/8/31 2:34,2.3,10,2.4,11,1.6,7
2015/8/31 2:35,2.1,10,2.2,11,1.8,9
2015/8/31 2:36,1.8,10,2,11,1,13
2015/8/31 2:37,1.5,10,1.7,11,2.5,12
2015/8/31 2:38,1.3,10,1.5,11,1.5,12
2015/8/31 2:39,1.1,10,1.3,11,1,9
2015/8/31 2:40,0.9,11,1,11,1.4,13
2015/8/31 2:41,0.8,11,0.9,11,1.5,12
2015/8/31 2:42,0.8,11,0.8,11,1,13
2015/8/31 2:43,0.7,12,0.8,10,1,12
2015/8/31 2:44,0.7,12,0.7,10,0.1,15
2015/8/31 2:45,0.6,13,0.6,10,0.9,1
2015/8/31 2:46,0.6,13,0.6,10,1.4,1
2015/8/31 2:47,0.5,13,0.6,10,0.3,13
2015/8/31 2:48,0.4,14,0.5,10,0.6,15
2015/8/31 2:49,0.4,14,0.5,10,0.6,11
2015/8/31 2:50,0.4,14,0.4,11,1,16
2015/8/31 2:51,0.3,14,0.4,11,1.3,16
2015/8/31 2:52,0.3,15,0.3,11,0.4,16
2015/8/31 2:53,0.2,15,0.3,12,0,15
2015/8/31 2:54,0.3,15,0.3,12,0.1,2
2015/8/31 2:55,0.3,15,0.3,13,0.9,1
2015/8/31 2:56,0.3,15,0.3,13,0.8,2
2015/8/31 2:57,0.3,16,0.3,13,0.4,2
2015/8/31 2:58,0.3,16,0.3,14,0.3,1
2015/8/31 2:59,0.3,16,0.3,14,1.1,1
2015/8/31 3:00,0.3,16,0.3,14,1.1,1
2015/8/31 3:01,0.3,1,0.3,15,0.6,3
2015/8/31 3:02,0.3,1,0.3,15,0.1,3
2015/8/31 3:03,0.3,1,0.3,15,0.1,10
2015/8/31 3:04,0.3,1,0.3,15,0.1,13
2015/8/31 3:05,0.2,1,0.3,15,0.1,13
2015/8/31 3:06,0.3,16,0.3,15,1,12
2015/8/31 3:07,0.4,15,0.4,15,1.4,10
2015/8/31 3:08,0.4,14,0.4,15,1.5,9
2015/8/31 3:09,0.3,13,0.4,15,0.1,8
2015/8/31 3:10,0.3,9,0.3,15,0.6,5
2015/8/31 3:11,0.3,9,0.3,15,0.6,5
2015/8/31 3:12,0.3,9,0.3,15,1.4,10
2015/8/31 3:13,0.5,9,0.5,9,2.2,9
2015/8/31 3:14,0.7,9,0.7,9,2.7,10
2015/8/31 3:15,0.8,9,0.8,9,1.3,9
2015/8/31 3:16,0.7,8,0.8,9,1.1,12
2015/8/31 3:17,0.6,8,0.7,9,0.1,9
2015/8/31 3:18,0.7,9,0.7,9,1.8,11
2015/8/31 3:19,0.9,9,0.9,9,3.6,10
2015/8/31 3:20,1.2,10,1.2,10,3.9,10
2015/8/31 3:21,1.4,10,1.4,10,2.9,11
2015/8/31 3:22,1.4,10,1.4,10,2,10
2015/8/31 3:23,1.4,10,1.4,10,1.6,12
2015/8/31 3:24,1.3,10,1.3,10,1.5,12
2015/8/31 3:25,1.3,11,1.3,10,0.9,13
2015/8/31 3:26,1.3,11,1.3,10,0.4,14
2015/8/31 3:27,1.2,11,1.3,10,0,1
2015/8/31 3:28,1.2,11,1.2,10,0.8,5
2015/8/31 3:29,1,11,1.1,10,1.1,6
2015/8/31 3:30,0.8,10,1,10,1.1,5
2015/8/31 3:31,0.6,6,0.7,10,1.1,5
2015/8/31 3:32,0.6,4,0.6,10,1,5
2015/8/31 3:33,0.5,4,0.6,10,0.6,4
2015/8/31 3:34,0.5,4,0.5,10,1,5
2015/8/31 3:35,0.5,4,0.5,11,1,6
2015/8/31 3:36,0.5,4,0.5,11,1,5
2015/8/31 3:37,0.6,5,0.6,11,1,5
2015/8/31 3:38,0.6,5,0.6,11,0.9,5
2015/8/31 3:39,0.6,5,0.6,11,0.9,5
2015/8/31 3:40,0.5,4,0.6,10,0.5,3
2015/8/31 3:41,0.5,4,0.5,6,1.4,16
2015/8/31 3:42,0.5,4,0.5,4,1.1,16
2015/8/31 3:43,0.6,3,0.6,5,1,1
2015/8/31 3:44,0.6,3,0.6,5,1.1,16
2015/8/31 3:45,0.6,2,0.6,5,0.9,2
2015/8/31 3:46,0.6,2,0.6,5,0.9,2
2015/8/31 3:47,0.5,1,0.6,5,0.9,1
2015/8/31 3:48,0.5,1,0.5,5,0.8,16
2015/8/31 3:49,0.5,16,0.5,5,0.1,15
2015/8/31 3:50,0.5,16,0.5,4,1.3,15
2015/8/31 3:51,0.6,16,0.6,4,1.3,16
2015/8/31 3:52,0.6,16,0.6,4,1.6,1
2015/8/31 3:53,0.6,16,0.6,3,1.5,16
2015/8/31 3:54,0.6,16,0.7,16,1.4,16
2015/8/31 3:55,0.6,16,0.6,16,0.9,2
2015/8/31 3:56,0.6,16,0.7,16,0.8,1
2015/8/31 3:57,0.6,16,0.6,16,0.9,2
2015/8/31 3:58,0.6,16,0.6,16,1,3
2015/8/31 3:59,0.7,1,0.7,16,0.9,2
2015/8/31 4:00,0.7,1,0.7,16,1,3
2015/8/31 4:01,0.7,1,0.7,16,1.1,4
2015/8/31 4:02,0.6,2,0.7,16,1,3
2015/8/31 4:03,0.5,2,0.6,16,0.5,5
2015/8/31 4:04,0.5,2,0.5,16,1,3
2015/8/31 4:05,0.5,3,0.5,16,1,3
2015/8/31 4:06,0.5,3,0.5,1,1,4
2015/8/31 4:07,0.6,4,0.6,1,1,7
2015/8/31 4:08,0.5,4,0.6,1,0.6,8
2015/8/31 4:09,0.6,5,0.6,1,1,6
2015/8/31 4:10,0.6,5,0.6,1,0.9,5
2015/8/31 4:11,0.5,5,0.6,2,0.9,5
2015/8/31 4:12,0.5,6,0.5,2,0.3,8
2015/8/31 4:13,0.4,6,0.5,3,0,8
2015/8/31 4:14,0.4,6,0.4,3,0,8
2015/8/31 4:15,0.3,7,0.4,3,0,8
2015/8/31 4:16,0.3,7,0.3,3,0,8
2015/8/31 4:17,0.2,7,0.3,4,0.1,3
2015/8/31 4:18,0.2,7,0.2,5,0.1,15
2015/8/31 4:19,0.2,6,0.2,5,1.1,16
2015/8/31 4:20,0.1,7,0.2,5,0.9,1
2015/8/31 4:21,0.1,7,0.2,5,0.9,16
2015/8/31 4:22,0.2,1,0.2,6,0.5,15
2015/8/31 4:23,0.2,16,0.2,6,0.3,1
2015/8/31 4:24,0.2,16,0.2,7,0.1,14
2015/8/31 4:25,0.2,16,0.2,7,0,16
2015/8/31 4:26,0.2,16,0.2,7,0,15
2015/8/31 4:27,0.2,16,0.2,7,0,15
2015/8/31 4:28,0.2,16,0.2,7,0,15
2015/8/31 4:29,0.1,16,0.2,6,0,15
2015/8/31 4:30,0.1,16,0.1,7,0,15
2015/8/31 4:31,0,16,0.1,7,0,15
2015/8/31 4:32,0,16,0,1,0,15
2015/8/31 4:33,0,16,0,16,0.1,15
2015/8/31 4:34,0,16,0,16,0,15
2015/8/31 4:35,0,15,0,16,0,15
2015/8/31 4:36,0,15,0,16,0,15
2015/8/31 4:37,0,15,0,16,1,10
2015/8/31 4:38,0.1,15,0.1,16,1.3,10
2015/8/31 4:39,0.2,14,0.2,15,1.5,10
2015/8/31 4:40,0.4,14,0.4,14,1.8,10
2015/8/31 4:41,0.6,13,0.6,13,2,11
2015/8/31 4:42,0.7,12,0.7,13,2.1,10
2015/8/31 4:43,0.9,12,0.9,12,2.2,9
2015/8/31 4:44,1,11,1,11,1.6,9
2015/8/31 4:45,1.1,10,1.1,11,1.5,10
2015/8/31 4:46,1.2,10,1.2,10,1.4,10
2015/8/31 4:47,1.3,10,1.3,10,1.3,12
2015/8/31 4:48,1.3,11,1.3,10,1.6,13
2015/8/31 4:49,1.2,11,1.3,10,1.5,13
2015/8/31 4:50,1.2,11,1.2,10,1.5,13
2015/8/31 4:51,1.2,12,1.2,10,1.8,13
2015/8/31 4:52,1.1,12,1.1,10,1.6,12
2015/8/31 4:53,1.1,12,1.1,10,1.6,12
2015/8/31 4:54,1,12,1,10,1.5,10
2015/8/31 4:55,1.2,12,1.2,10,3.5,10
2015/8/31 4:56,1.3,12,1.3,10,3.6,9
2015/8/31 4:57,1.4,12,1.4,12,3.8,8
2015/8/31 4:58,1.6,11,1.6,11,4.3,9
2015/8/31 4:59,1.7,11,1.7,11,4.2,10
2015/8/31 5:00,2,11,2,11,4.4,11
2015/8/31 5:01,2.1,10,2.1,10,3.7,10
2015/8/31 5:02,2.3,10,2.3,10,4.7,9
2015/8/31 5:03,2.5,10,2.5,10,3.8,10
2015/8/31 5:04,2.6,10,2.6,10,3.8,10
2015/8/31 5:05,2.6,10,2.6,10,4.7,10
2015/8/31 5:06,2.7,10,2.7,10,3.1,11
2015/8/31 5:07,2.5,10,2.7,10,2.2,9
2015/8/31 5:08,2.3,10,2.5,10,1.5,9
2015/8/31 5:09,2.1,10,2.3,10,0.8,7
2015/8/31 5:10,1.8,10,2.1,10,0.4,4
2015/8/31 5:11,1.6,10,1.8,10,0.1,9
2015/8/31 5:12,1.2,10,1.5,10,0.1,14
2015/8/31 5:13,0.9,10,1.2,10,0.1,4
2015/8/31 5:14,0.8,10,0.9,10,0,4
2015/8/31 5:15,0.4,8,0.7,10,0.1,3
2015/8/31 5:16,0.2,5,0.4,10,0.1,4
2015/8/31 5:17,0.1,3,0.2,10,0.8,3
2015/8/31 5:18,0.2,3,0.2,10,1.4,3
2015/8/31 5:19,0.3,2,0.3,10,1.6,2
2015/8/31 5:20,0.4,2,0.4,10,1.8,3
2015/8/31 5:21,0.5,3,0.5,10,1.6,3
2015/8/31 5:22,0.6,3,0.6,10,1.5,4
2015/8/31 5:23,0.7,3,0.7,10,1.5,4
2015/8/31 5:24,0.8,3,0.8,3,1,4
2015/8/31 5:25,0.8,3,0.8,3,0.6,6
2015/8/31 5:26,0.8,4,0.8,3,0.8,5
2015/8/31 5:27,0.9,4,0.9,4,0.9,5
2015/8/31 5:28,0.8,4,0.9,4,1.1,5
2015/8/31 5:29,0.8,5,0.8,4,1.4,5
2015/8/31 5:30,0.8,5,0.8,4,1.3,5
2015/8/31 5:31,0.7,5,0.8,4,0.9,5
2015/8/31 5:32,0.6,5,0.7,4,0.5,5
2015/8/31 5:33,0.5,5,0.6,4,0.8,5
2015/8/31 5:34,0.5,6,0.5,4,0.5,8
2015/8/31 5:35,0.5,6,0.5,4,0.4,8
2015/8/31 5:36,0.4,6,0.5,4,0.1,9
2015/8/31 5:37,0.4,7,0.4,4,0.1,9
2015/8/31 5:38,0.3,7,0.4,4,0,8
2015/8/31 5:39,0.2,7,0.3,5,0.1,8
2015/8/31 5:40,0.1,7,0.2,5,0.1,6
2015/8/31 5:41,0.1,7,0.1,5,0,5
2015/8/31 5:42,0,7,0.1,5,0,6
2015/8/31 5:43,0,7,0,5,0.1,4
2015/8/31 5:44,0,7,0,6,0.1,4
2015/8/31 5:45,0,6,0,6,0.1,3
2015/8/31 5:46,0.1,5,0.1,6,1,1
2015/8/31 5:47,0.1,4,0.1,7,0.6,1
2015/8/31 5:48,0.1,4,0.1,7,0.3,3
2015/8/31 5:49,0.1,3,0.1,7,0.1,3
2015/8/31 5:50,0.1,3,0.1,7,0.6,3
2015/8/31 5:51,0.1,2,0.1,7,0.8,2
2015/8/31 5:52,0.2,2,0.2,2,1.4,1
2015/8/31 5:53,0.3,2,0.3,2,1.8,2
2015/8/31 5:54,0.4,2,0.4,2,1,2
2015/8/31 5:55,0.4,2,0.4,2,0.4,1
2015/8/31 5:56,0.4,2,0.4,2,1,1
2015/8/31 5:57,0.5,2,0.5,2,1.6,1
2015/8/31 5:58,0.5,2,0.5,2,1.3,2
2015/8/31 5:59,0.6,2,0.6,2,1.5,2
2015/8/31 6:00,0.7,2,0.7,2,1.4,2
2015/8/31 6:01,0.7,2,0.7,2,1.6,2
2015/8/31 6:02,0.7,2,0.8,2,1.1,2
2015/8/31 6:03,0.7,2,0.7,2,1,2
2015/8/31 6:04,0.7,2,0.7,2,1,3
2015/8/31 6:05,0.7,2,0.7,2,1.1,2
2015/8/31 6:06,0.8,2,0.8,2,1.1,2
2015/8/31 6:07,0.7,2,0.8,2,0.8,3
2015/8/31 6:08,0.7,2,0.7,2,0.8,3
2015/8/31 6:09,0.6,2,0.7,2,0.8,2
2015/8/31 6:10,0.6,2,0.6,2,0.9,2
2015/8/31 6:11,0.5,2,0.6,2,0.9,3
2015/8/31 6:12,0.6,3,0.6,2,1,3
2015/8/31 6:13,0.6,3,0.6,2,1,3
2015/8/31 6:14,0.5,3,0.6,2,0.6,4
2015/8/31 6:15,0.5,3,0.5,2,0.1,3
2015/8/31 6:16,0.4,3,0.5,2,0.1,3
2015/8/31 6:17,0.4,3,0.4,2,0.1,3
2015/8/31 6:18,0.3,3,0.4,2,0.1,5
2015/8/31 6:19,0.3,3,0.3,2,0.1,7
2015/8/31 6:20,0.2,4,0.3,2,0,7
2015/8/31 6:21,0.2,4,0.2,2,0.1,9
2015/8/31 6:22,0.1,5,0.2,3,0.3,9
2015/8/31 6:23,0.1,6,0.1,3,0.9,10
2015/8/31 6:24,0.2,6,0.2,3,1.9,11
2015/8/31 6:25,0.3,7,0.3,3,2,11
2015/8/31 6:26,0.5,8,0.5,8,1.8,11
2015/8/31 6:27,0.6,9,0.6,9,1.5,12
2015/8/31 6:28,0.6,10,0.6,9,1.1,11
2015/8/31 6:29,0.7,10,0.7,10,0.9,10
2015/8/31 6:30,0.7,10,0.7,10,0.8,10
2015/8/31 6:31,0.7,10,0.7,10,0.5,9
2015/8/31 6:32,0.7,10,0.7,10,0.3,9
2015/8/31 6:33,0.7,10,0.7,10,0.6,9
2015/8/31 6:34,0.6,10,0.7,10,0.8,9
2015/8/31 6:35,0.5,10,0.6,10,0.6,9
2015/8/31 6:36,0.4,10,0.5,10,0.5,9
2015/8/31 6:37,0.3,9,0.4,10,0.1,9
2015/8/31 6:38,0.2,9,0.3,10,0,9
2015/8/31 6:39,0.2,9,0.2,10,0.1,9
2015/8/31 6:40,0.2,9,0.2,10,0,9
2015/8/31 6:41,0.1,9,0.2,10,0,9
2015/8/31 6:42,0.1,9,0.1,10,0,9
2015/8/31 6:43,0.1,9,0.1,10,0,9
2015/8/31 6:44,0.1,9,0.1,10,0,9
2015/8/31 6:45,0,9,0.1,10,0,9
2015/8/31 6:46,0,9,0,9,0.4,5
2015/8/31 6:47,0,9,0,9,0.6,6
2015/8/31 6:48,0.1,8,0.1,9,0.4,6
2015/8/31 6:49,0.1,8,0.1,9,0.5,6
2015/8/31 6:50,0.1,7,0.1,9,0.3,6
2015/8/31 6:51,0.1,7,0.1,9,0,5
2015/8/31 6:52,0.1,7,0.1,9,0.1,8
2015/8/31 6:53,0.1,7,0.1,9,0.1,9
2015/8/31 6:54,0.1,7,0.1,9,0.4,8
2015/8/31 6:55,0.2,6,0.2,6,1.8,8
2015/8/31 6:56,0.3,7,0.3,7,2,8
2015/8/31 6:57,0.4,7,0.4,7,2,8
2015/8/31 6:58,0.5,7,0.5,7,1.4,8
2015/8/31 6:59,0.6,8,0.6,8,1.9,8
2015/8/31 7:00,0.7,8,0.7,8,1.6,8
2015/8/31 7:01,0.8,8,0.8,8,1.8,8
2015/8/31 7:02,0.9,8,0.9,8,1.5,8
2015/8/31 7:03,0.9,8,0.9,8,0.5,8
2015/8/31 7:04,0.9,8,0.9,8,1.1,8
2015/8/31 7:05,1,8,1,8,1.3,8
2015/8/31 7:06,0.9,8,1,8,1.3,8
2015/8/31 7:07,0.8,8,0.9,8,0.6,8
2015/8/31 7:08,0.7,8,0.8,8,0.5,13
2015/8/31 7:09,0.6,9,0.7,8,0.5,10
2015/8/31 7:10,0.5,9,0.6,8,0.1,14
2015/8/31 7:11,0.4,9,0.5,8,0.1,14
2015/8/31 7:12,0.4,9,0.4,8,0.8,4
2015/8/31 7:13,0.4,9,0.4,8,0.4,3
2015/8/31 7:14,0.3,9,0.4,8,0.1,4
2015/8/31 7:15,0.2,12,0.3,8,0.1,8
2015/8/31 7:16,0.1,14,0.2,8,0,15
2015/8/31 7:17,0.1,15,0.1,8,0.3,16
2015/8/31 7:18,0.2,16,0.2,8,1.3,2
2015/8/31 7:19,0.2,1,0.2,9,1.1,2
2015/8/31 7:20,0.2,1,0.2,9,0.4,16
2015/8/31 7:21,0.2,1,0.2,9,0.4,15
2015/8/31 7:22,0.2,16,0.2,9,0.1,14
2015/8/31 7:23,0.2,16,0.2,8,0,13
2015/8/31 7:24,0.2,16,0.2,9,0.6,4
2015/8/31 7:25,0.2,16,0.2,12,0.9,3
2015/8/31 7:26,0.3,1,0.3,16,1,4
2015/8/31 7:27,0.3,1,0.4,1,1.1,4
2015/8/31 7:28,0.3,1,0.3,1,0.5,1
2015/8/31 7:29,0.3,1,0.3,1,0.8,2
2015/8/31 7:30,0.4,2,0.4,1,1.8,3
2015/8/31 7:31,0.4,3,0.4,1,1.3,2
2015/8/31 7:32,0.5,3,0.5,3,1.1,3
2015/8/31 7:33,0.6,3,0.6,3,0.9,2
2015/8/31 7:34,0.6,3,0.6,3,0.5,1
2015/8/31 7:35,0.5,3,0.6,3,0.5,2
2015/8/31 7:36,0.5,3,0.5,3,0.9,1
2015/8/31 7:37,0.5,2,0.5,3,1,14
2015/8/31 7:38,0.5,2,0.5,3,0.9,14
2015/8/31 7:39,0.5,2,0.5,3,0.3,12
2015/8/31 7:40,0.4,1,0.5,3,0.8,10
2015/8/31 7:41,0.4,16,0.4,3,0.5,10
2015/8/31 7:42,0.3,14,0.4,3,0.4,10
2015/8/31 7:43,0.3,12,0.3,3,0.4,10
2015/8/31 7:44,0.3,12,0.3,3,1.1,8
2015/8/31 7:45,0.3,12,0.3,3,0.6,14
2015/8/31 7:46,0.3,12,0.3,3,0.8,10
2015/8/31 7:47,0.3,11,0.3,2,1,9
2015/8/31 7:48,0.2,10,0.3,2,0.8,9
2015/8/31 7:49,0.3,10,0.3,2,0.5,10
2015/8/31 7:50,0.3,10,0.3,1,1.8,10
2015/8/31 7:51,0.4,10,0.4,16,1.5,8
2015/8/31 7:52,0.5,10,0.5,10,1.4,10
2015/8/31 7:53,0.5,10,0.5,10,0.9,10
2015/8/31 7:54,0.5,10,0.5,10,1,11
2015/8/31 7:55,0.7,10,0.7,10,1.5,11
2015/8/31 7:56,0.8,10,0.8,10,1.9,9
2015/8/31 7:57,0.8,10,0.8,10,1.8,10
2015/8/31 7:58,1,10,1,11,2.2,11
2015/8/31 7:59,1.1,10,1.1,11,2.6,9
2015/8/31 8:00,1.1,11,1.1,11,2.5,10
2015/8/31 8:01,1.2,11,1.2,11,2.2,11
2015/8/31 8:02,1.2,11,1.2,11,1.9,11
2015/8/31 8:03,1.3,11,1.3,11,2.1,10
2015/8/31 8:04,1.4,11,1.4,11,1.4,11
2015/8/31 8:05,1.3,11,1.4,11,1.1,11
2015/8/31 8:06,1.2,10,1.3,11,0.3,10
2015/8/31 8:07,1.1,11,1.2,11,0.9,13
2015/8/31 8:08,1,11,1.1,11,0.1,12
2015/8/31 8:09,0.8,11,1,11,0,8
2015/8/31 8:10,0.7,11,0.8,11,0,12
2015/8/31 8:11,0.5,11,0.7,11,0,13
2015/8/31 8:12,0.4,11,0.5,11,0.1,14
2015/8/31 8:13,0.2,12,0.4,11,0.1,1
2015/8/31 8:14,0.1,12,0.2,11,0.1,16
2015/8/31 8:15,0,12,0.1,10,0,8
2015/8/31 8:16,0,12,0,10,0,9
2015/8/31 8:17,0,11,0,11,0.6,7
2015/8/31 8:18,0.1,10,0.1,11,0.8,8
2015/8/31 8:19,0.1,10,0.1,11,0.8,6
2015/8/31 8:20,0.1,8,0.1,11,0.8,6
2015/8/31 8:21,0.2,7,0.2,11,0.6,6
2015/8/31 8:22,0.2,7,0.2,11,0.8,7
2015/8/31 8:23,0.3,7,0.3,7,0.8,6
2015/8/31 8:24,0.3,6,0.3,7,0.6,7
2015/8/31 8:25,0.3,6,0.3,7,0.6,7
2015/8/31 8:26,0.3,6,0.3,7,0.1,3
2015/8/31 8:27,0.3,6,0.3,7,0.1,1
2015/8/31 8:28,0.3,5,0.3,7,0.1,5
2015/8/31 8:29,0.2,5,0.3,7,0.1,3
2015/8/31 8:30,0.2,5,0.2,7,0.1,2
2015/8/31 8:31,0.1,4,0.2,7,0.1,4
2015/8/31 8:32,0.1,4,0.1,7,0.1,5
2015/8/31 8:33,0,4,0.1,7,0.1,4
2015/8/31 8:34,0.1,4,0.1,6,0.8,3
2015/8/31 8:35,0.1,3,0.1,6,1,3
2015/8/31 8:36,0.2,3,0.2,6,1.1,3
2015/8/31 8:37,0.3,3,0.3,6,1.1,1
2015/8/31 8:38,0.3,3,0.3,5,0.6,16
2015/8/31 8:39,0.3,3,0.3,3,0.8,16
2015/8/31 8:40,0.3,3,0.3,3,0.5,2
2015/8/31 8:41,0.4,2,0.4,3,1.1,16
2015/8/31 8:42,0.4,2,0.4,3,1.4,1
2015/8/31 8:43,0.5,2,0.5,2,0.4,1
2015/8/31 8:44,0.5,2,0.5,2,1.3,16
2015/8/31 8:45,0.4,2,0.5,2,0.6,2
2015/8/31 8:46,0.4,2,0.4,2,1.4,1
2015/8/31 8:47,0.4,1,0.4,2,0.6,1
2015/8/31 8:48,0.4,1,0.4,2,0.6,1
2015/8/31 8:49,0.4,1,0.4,2,1,2
2015/8/31 8:50,0.5,1,0.5,2,1.3,16
2015/8/31 8:51,0.5,1,0.5,2,1.4,1
2015/8/31 8:52,0.6,1,0.6,1,1.1,16
2015/8/31 8:53,0.6,1,0.6,1,1.4,16
2015/8/31 8:54,0.7,1,0.7,1,1.9,2
2015/8/31 8:55,0.8,1,0.8,1,1.8,1
2015/8/31 8:56,0.8,1,0.8,1,1.9,16
2015/8/31 8:57,0.9,1,0.9,1,2,1
2015/8/31 8:58,1,1,1,1,1.3,2
2015/8/31 8:59,1,1,1,1,1.1,1
2015/8/31 9:00,0.9,1,1,1,1.1,1
2015/8/31 9:01,0.9,1,0.9,1,1.3,3
2015/8/31 9:02,0.9,1,0.9,1,1,3
2015/8/31 9:03,0.8,2,0.9,1,0.6,2
2015/8/31 9:04,0.7,1,0.8,1,0.1,1
2015/8/31 9:05,0.6,2,0.7,1,0.1,11
2015/8/31 9:06,0.4,2,0.6,1,0.1,5
2015/8/31 9:07,0.3,3,0.4,1,0,5
2015/8/31 9:08,0.3,3,0.3,1,0.1,4
2015/8/31 9:09,0.2,3,0.3,1,0.3,3
2015/8/31 9:10,0.1,3,0.2,1,0.1,3
2015/8/31 9:11,0.1,3,0.1,1,0,3
2015/8/31 9:12,0,3,0.1,1,0.1,3
2015/8/31 9:13,0,3,0,2,0.3,1
2015/8/31 9:14,0,3,0,1,0.8,16
2015/8/31 9:15,0.1,3,0.1,2,1.3,1
2015/8/31 9:16,0.2,2,0.2,2,1,1
2015/8/31 9:17,0.3,2,0.3,3,1.4,16
2015/8/31 9:18,0.4,2,0.4,2,1.5,16
2015/8/31 9:19,0.4,1,0.4,2,0.9,16
2015/8/31 9:20,0.4,1,0.4,2,1,16
2015/8/31 9:21,0.5,1,0.5,1,1.4,16
2015/8/31 9:22,0.6,16,0.6,1,1.3,16
2015/8/31 9:23,0.7,16,0.7,16,1.8,15
2015/8/31 9:24,0.8,16,0.8,16,2.2,14
2015/8/31 9:25,0.9,16,0.9,16,2.4,14
2015/8/31 9:26,1,16,1,16,2.2,15
2015/8/31 9:27,1.1,15,1.1,15,2.2,14
2015/8/31 9:28,1.2,15,1.2,15,2.5,15
2015/8/31 9:29,1.3,15,1.3,15,2,15
2015/8/31 9:30,1.4,15,1.4,15,2.2,1
2015/8/31 9:31,1.5,15,1.5,15,2.4,1
2015/8/31 9:32,1.5,15,1.5,15,1.9,16
2015/8/31 9:33,1.5,15,1.5,15,1.5,16
2015/8/31 9:34,1.3,15,1.4,15,1,1
2015/8/31 9:35,1.2,15,1.3,15,1.3,14
2015/8/31 9:36,1.1,15,1.2,15,2,15
2015/8/31 9:37,1.1,15,1.1,15,1.6,14
2015/8/31 9:38,1,15,1.1,15,3.2,15
2015/8/31 9:39,1.1,16,1.1,15,1.9,15
2015/8/31 9:40,1,15,1.1,15,1.8,15
2015/8/31 9:41,1.1,15,1.1,15,3.3,15
2015/8/31 9:42,1.1,16,1.1,15,1.9,16
2015/8/31 9:43,1.1,16,1.1,15,1.5,1
2015/8/31 9:44,1.1,15,1.1,15,0.8,14
2015/8/31 9:45,1.1,15,1.1,16,0.8,15
2015/8/31 9:46,1,15,1.1,15,0.1,16
2015/8/31 9:47,0.9,16,1,15,0.5,6
2015/8/31 9:48,0.8,16,0.9,16,0.8,6
2015/8/31 9:49,0.7,16,0.8,16,0.4,9
2015/8/31 9:50,0.6,16,0.6,16,0.5,16
2015/8/31 9:51,0.3,1,0.5,15,0.8,1
2015/8/31 9:52,0.3,16,0.3,16,1.1,16
2015/8/31 9:53,0.2,1,0.2,16,0.3,2
2015/8/31 9:54,0.2,1,0.2,15,1.1,1
2015/8/31 9:55,0.3,1,0.3,15,1.9,16
2015/8/31 9:56,0.3,1,0.3,15,1,16
2015/8/31 9:57,0.4,1,0.4,16,1.1,2
2015/8/31 9:58,0.4,1,0.4,16,1,11
2015/8/31 9:59,0.4,1,0.4,16,0.9,12
2015/8/31 10:00,0.4,16,0.5,16,1,12
2015/8/31 10:01,0.4,16,0.4,1,0.1,13
2015/8/31 10:02,0.4,15,0.4,1,0.9,10
2015/8/31 10:03,0.4,14,0.4,1,0.1,10
2015/8/31 10:04,0.4,13,0.4,1,0.1,10
2015/8/31 10:05,0.3,12,0.4,1,1.1,10
2015/8/31 10:06,0.4,11,0.4,1,1.5,11
2015/8/31 10:07,0.4,11,0.4,1,1.8,9
2015/8/31 10:08,0.4,11,0.4,1,2.1,10
2015/8/31 10:09,0.5,11,0.5,1,1.5,10
2015/8/31 10:10,0.5,11,0.5,11,1.9,12
2015/8/31 10:11,0.6,11,0.6,11,1.1,11
2015/8/31 10:12,0.7,11,0.7,11,1.1,11
2015/8/31 10:13,0.8,11,0.8,11,1.6,10
2015/8/31 10:14,0.9,11,0.9,11,1.6,10
2015/8/31 10:15,0.9,11,0.9,11,1.8,10
2015/8/31 10:16,1,11,1,11,2.1,10
2015/8/31 10:17,1,11,1,11,1.8,11
2015/8/31 10:18,1,11,1,11,1.8,11
2015/8/31 10:19,1,11,1,11,1,12
2015/8/31 10:20,1,11,1,11,1.3,10
2015/8/31 10:21,1,11,1,11,1,11
2015/8/31 10:22,0.9,11,1,11,0.8,9
2015/8/31 10:23,0.8,11,0.9,11,0.4,12
2015/8/31 10:24,0.7,11,0.8,11,0.6,10
2015/8/31 10:25,0.7,11,0.8,11,0.5,11
2015/8/31 10:26,0.6,11,0.7,11,0.6,12
2015/8/31 10:27,0.5,11,0.6,11,0.5,13
2015/8/31 10:28,0.4,11,0.5,11,0.6,10
2015/8/31 10:29,0.4,11,0.4,11,1.1,9
2015/8/31 10:30,0.3,11,0.4,11,1.3,9
2015/8/31 10:31,0.3,10,0.4,11,1.5,9
2015/8/31 10:32,0.4,11,0.4,11,1.6,9
2015/8/31 10:33,0.5,10,0.5,11,1.6,9
2015/8/31 10:34,0.6,10,0.6,11,2,9
2015/8/31 10:35,0.7,10,0.7,11,2.4,9
2015/8/31 10:36,0.7,10,0.7,10,2,10
2015/8/31 10:37,0.8,10,0.8,10,2,9
2015/8/31 10:38,0.9,10,0.9,10,2,10
2015/8/31 10:39,0.9,9,0.9,10,1.4,9
2015/8/31 10:40,0.9,10,1,9,1.3,8
2015/8/31 10:41,1,10,1,9,1.8,10
2015/8/31 10:42,1,9,1,9,1.8,10
2015/8/31 10:43,1,9,1,9,1.8,8
2015/8/31 10:44,1,9,1,9,2,9
2015/8/31 10:45,0.9,9,0.9,9,1.3,9
2015/8/31 10:46,0.8,9,0.9,9,0.9,9
2015/8/31 10:47,0.7,10,0.8,9,0.6,10
2015/8/31 10:48,0.7,10,0.7,9,0.9,11
2015/8/31 10:49,0.6,10,0.7,9,0.8,11
2015/8/31 10:50,0.6,10,0.6,10,0.3,12
2015/8/31 10:51,0.5,10,0.6,10,0.4,11
2015/8/31 10:52,0.4,11,0.5,9,0.3,12
2015/8/31 10:53,0.4,11,0.4,9,0.5,10
2015/8/31 10:54,0.3,11,0.3,9,0.8,11
2015/8/31 10:55,0.3,11,0.3,9,0.6,12
2015/8/31 10:56,0.2,11,0.3,9,0.4,10
2015/8/31 10:57,0.3,11,0.3,10,0.8,9
2015/8/31 10:58,0.2,11,0.3,10,0.5,12
2015/8/31 10:59,0.2,11,0.2,10,0.1,13
2015/8/31 11:00,0.2,11,0.2,10,1,9
2015/8/31 11:01,0.2,11,0.2,10,0.3,8
2015/8/31 11:02,0.2,11,0.2,11,0.1,9
2015/8/31 11:03,0.2,10,0.2,11,0.5,9
2015/8/31 11:04,0.2,10,0.2,11,1,9
2015/8/31 11:05,0.3,10,0.3,11,1.4,8
2015/8/31 11:06,0.3,9,0.3,11,1.3,8
2015/8/31 11:07,0.4,9,0.4,9,1.3,8
2015/8/31 11:08,0.4,9,0.4,9,1,9
2015/8/31 11:09,0.4,9,0.4,9,0.1,9
2015/8/31 11:10,0.4,9,0.4,9,0.1,9
2015/8/31 11:11,0.4,9,0.4,9,0.9,9
2015/8/31 11:12,0.4,9,0.4,9,0.6,8
2015/8/31 11:13,0.5,8,0.5,8,0.8,7
2015/8/31 11:14,0.4,8,0.5,8,0.6,7
2015/8/31 11:15,0.3,8,0.4,8,0.1,7
2015/8/31 11:16,0.3,8,0.3,8,0.1,6
2015/8/31 11:17,0.2,8,0.2,8,0.1,2
2015/8/31 11:18,0.1,8,0.1,8,0.1,11
2015/8/31 11:19,0.1,8,0.1,8,0.1,11
2015/8/31 11:20,0.1,8,0.1,8,0.1,10
2015/8/31 11:21,0.1,8,0.1,8,0.1,10
2015/8/31 11:22,0.1,9,0.1,8,0.1,10
2015/8/31 11:23,0,9,0.1,8,0.1,10
2015/8/31 11:24,0,10,0,8,0.1,10
2015/8/31 11:25,0,10,0,8,0.1,10